Weather History for Statesboro, GA

Change the Weather History Date:

Sunday, May 12, 2013

  Actual Average (KSAV) Record (KSAV)
Temperature  
Mean Temperature 72 °F 72 °F  
Max Temperature 82 °F 84 °F 95 °F (1905)
Min Temperature 60 °F 61 °F 44 °F (1969)
Degree Days  
Heating Degree Days 0 0  
Month to date heating degree days 6  
Since 1 July heating degree days 1809  
Cooling Degree Days 6 8  
Month to date cooling degree days 76  
Year to date cooling degree days 212  
Growing Degree Days 22 (Base 50)    
Moisture  
Dew Point 57 °F    
Average Humidity 62    
Maximum Humidity 100    
Minimum Humidity 34    
Precipitation  
Precipitation 0.00 in 0.09 in 3.33 in (1974)
Month to date precipitation 1.01  
Year to date precipitation 14.29  
Sea Level Pressure  
Sea Level Pressure 29.96 in    
Wind  
Wind Speed 7 mph (WNW)    
Max Wind Speed 16 mph    
Max Gust Speed 22 mph    
Visibility 10 miles    
Events      
T = Trace of Precipitation, MM = Missing Value Source: NWS Daily Summary

Daily Weather History Graph

Daily Weather History Graph

Search for Another Location

Airport:

Trip Planner

Search our weather history database for the weather conditions in past years. The results will help you decide how hot, cold, wet, or windy it might be!

Date:

Astronomy

May. 12, 2013 Rise Set
Actual Time 6:30 AM EDT 8:16 PM EDT
Civil Twilight 6:03 AM EDT 8:43 PM EDT
Nautical Twilight 5:31 AM EDT 9:15 PM EDT
Astronomical Twilight 4:57 AM EDT 9:50 PM EDT
Moon 8:26 AM EDT (5/12) 10:40 PM EDT (5/12)
Length of Visible Light 14h 39m
Length of Day
13h 45m
Waxing Crescent, 6% of the Moon is Illuminated
May 12
Waxing Crescent
May 18
First Quarter
May 25
Full
May 31
Last Quarter
Jun 8
New

Hourly Weather History & Observations

Time (EDT) Temp. Dew Point Humidity Pressure Visibility Wind Dir Wind Speed Gust Speed Precip Events Conditions
12:15 AM 71.8 °F 65.1 °F 79% 29.93 in 10.0 mi WSW 4.6 mph - N/A   Clear
12:35 AM 71.2 °F 65.3 °F 81% 29.94 in 10.0 mi WSW 6.9 mph - N/A   Clear
12:55 AM 71.2 °F 65.3 °F 81% 29.94 in 10.0 mi WSW 5.8 mph - N/A   Clear
1:15 AM 70.9 °F 64.9 °F 81% 29.94 in 10.0 mi SW 6.9 mph - N/A   Scattered Clouds
1:35 AM 70.7 °F 64.9 °F 82% 29.93 in 10.0 mi WSW 4.6 mph - N/A   Scattered Clouds
1:55 AM 70.3 °F 64.9 °F 83% 29.93 in 10.0 mi WSW 5.8 mph - N/A   Mostly Cloudy
2:15 AM 70.7 °F 64.8 °F 81% 29.93 in 10.0 mi WSW 6.9 mph - N/A   Overcast
2:35 AM 70.2 °F 64.6 °F 82% 29.92 in 10.0 mi WSW 9.2 mph - N/A   Scattered Clouds
2:55 AM 70.0 °F 64.8 °F 83% 29.91 in 10.0 mi WSW 5.8 mph - N/A   Scattered Clouds
3:15 AM 69.8 °F 64.8 °F 84% 29.90 in 10.0 mi WSW 5.8 mph - N/A   Scattered Clouds
3:35 AM 69.3 °F 64.8 °F 86% 29.90 in 10.0 mi WSW 6.9 mph - N/A   Scattered Clouds
3:55 AM 68.9 °F 64.6 °F 86% 29.90 in 10.0 mi West 6.9 mph - N/A   Scattered Clouds
4:15 AM 68.5 °F 64.6 °F 87% 29.90 in 10.0 mi West 3.5 mph - N/A   Scattered Clouds
4:35 AM 68.4 °F 66.0 °F 92% 29.90 in 10.0 mi West 5.8 mph - N/A   Clear
4:55 AM 68.5 °F 66.2 °F 92% 29.90 in 10.0 mi West 5.8 mph - N/A   Clear
5:35 AM 68.0 °F 68.0 °F 100% 29.90 in 10.0 mi West 6.9 mph - N/A   Clear
5:55 AM 67.6 °F 67.6 °F 100% 29.91 in 10.0 mi West 8.1 mph - N/A   Clear
6:15 AM 67.1 °F 67.1 °F 100% 29.92 in 10.0 mi West 6.9 mph - N/A   Clear
6:35 AM 66.7 °F 66.7 °F 100% 29.94 in 10.0 mi West 5.8 mph - N/A   Clear
6:55 AM 66.7 °F 66.7 °F 100% 29.94 in 10.0 mi West 3.5 mph - N/A   Scattered Clouds
7:15 AM 67.3 °F 67.3 °F 100% 29.94 in 10.0 mi WNW 4.6 mph - N/A   Scattered Clouds
7:35 AM 68.0 °F 68.0 °F 100% 29.95 in 10.0 mi WNW 5.8 mph - N/A   Clear
7:55 AM 68.5 °F 67.5 °F 96% 29.96 in 10.0 mi WNW 8.1 mph - N/A   Clear
8:15 AM 69.8 °F 64.9 °F 84% 29.95 in 10.0 mi NW 8.1 mph - N/A   Clear
8:35 AM 70.3 °F 62.2 °F 75% 29.96 in 10.0 mi NNW 9.2 mph - N/A   Clear
8:55 AM 70.7 °F 61.9 °F 74% 29.97 in 10.0 mi NW 8.1 mph - N/A   Clear
9:15 AM 71.6 °F 61.7 °F 71% 29.97 in 10.0 mi NW 9.2 mph 16.1 mph N/A   Scattered Clouds
9:35 AM 72.0 °F 61.2 °F 69% 29.97 in 10.0 mi NNW 9.2 mph - N/A   Scattered Clouds
9:55 AM 72.7 °F 60.8 °F 66% 29.97 in 10.0 mi NW 6.9 mph - N/A   Scattered Clouds
10:15 AM 73.4 °F 59.0 °F 61% 29.98 in 10.0 mi NW 9.2 mph - N/A   Clear
10:35 AM 74.3 °F 58.3 °F 57% 29.98 in 10.0 mi NW 11.5 mph - N/A   Clear
10:55 AM 74.7 °F 58.5 °F 57% 29.98 in 10.0 mi WNW 8.1 mph - N/A   Clear
11:15 AM 74.7 °F 58.1 °F 56% 29.97 in 10.0 mi NW 3.5 mph - N/A   Clear
11:35 AM 76.3 °F 55.8 °F 49% 29.98 in 10.0 mi West 10.4 mph 16.1 mph N/A   Clear
11:55 AM 76.6 °F 54.7 °F 46% 29.97 in 10.0 mi West 8.1 mph - N/A   Clear
12:15 PM 77.4 °F 54.7 °F 45% 29.98 in 10.0 mi West 10.4 mph 16.1 mph N/A   Clear
12:35 PM 78.3 °F 53.2 °F 42% 29.97 in 10.0 mi West 5.8 mph - N/A   Clear
12:55 PM 78.6 °F 52.0 °F 39% 29.97 in 10.0 mi NW 8.1 mph 17.3 mph N/A   Clear
1:15 PM 79.9 °F 52.9 °F 39% 29.97 in 10.0 mi NW 12.7 mph 18.4 mph N/A   Clear
1:35 PM 79.9 °F 51.6 °F 37% 29.97 in 10.0 mi WNW 12.7 mph 17.3 mph N/A   Scattered Clouds
1:55 PM 80.6 °F 50.2 °F 35% 29.97 in 10.0 mi WNW 11.5 mph 21.9 mph N/A   Clear
2:15 PM 81.1 °F 52.2 °F 36% 29.96 in 10.0 mi WNW 13.8 mph - N/A   Clear
2:35 PM 80.8 °F 52.2 °F 37% 29.95 in 10.0 mi WNW 13.8 mph 18.4 mph N/A   Clear
2:55 PM 81.7 °F 52.7 °F 37% 29.96 in 10.0 mi West 11.5 mph 17.3 mph N/A   Clear
3:15 PM 80.6 °F 52.2 °F 37% 29.95 in 10.0 mi West 13.8 mph 19.6 mph N/A   Scattered Clouds
3:35 PM 82.2 °F 52.7 °F 36% 29.95 in 10.0 mi WNW 13.8 mph 18.4 mph N/A   Scattered Clouds
3:55 PM 81.7 °F 52.2 °F 36% 29.94 in 10.0 mi WNW 12.7 mph 18.4 mph N/A   Scattered Clouds
4:15 PM 81.5 °F 52.0 °F 36% 29.94 in 10.0 mi NW 10.4 mph 18.4 mph N/A   Scattered Clouds
4:35 PM 81.0 °F 50.9 °F 35% 29.94 in 10.0 mi WNW 12.7 mph 18.4 mph N/A   Clear
4:55 PM 81.9 °F 50.7 °F 34% 29.94 in 10.0 mi West 16.1 mph 20.7 mph N/A   Clear
5:15 PM 80.6 °F 50.9 °F 35% 29.94 in 10.0 mi WNW 11.5 mph 19.6 mph N/A   Scattered Clouds
5:35 PM 80.8 °F 51.3 °F 36% 29.95 in 10.0 mi West 10.4 mph - N/A   Clear
5:55 PM 80.1 °F 50.7 °F 36% 29.95 in 10.0 mi WNW 10.4 mph 17.3 mph N/A   Scattered Clouds
6:15 PM 79.7 °F 50.9 °F 37% 29.95 in 10.0 mi WNW 9.2 mph - N/A   Scattered Clouds
6:35 PM 78.3 °F 50.9 °F 38% 29.95 in 10.0 mi NW 12.7 mph 17.3 mph N/A   Clear
6:55 PM 78.1 °F 50.2 °F 38% 29.95 in 10.0 mi WNW 9.2 mph 20.7 mph N/A   Clear
7:15 PM 77.4 °F 50.2 °F 38% 29.96 in 10.0 mi NW 11.5 mph 17.3 mph N/A   Clear
7:35 PM 75.6 °F 50.0 °F 41% 29.97 in 10.0 mi WNW 6.9 mph - N/A   Clear
7:55 PM 74.5 °F 49.5 °F 41% 29.98 in 10.0 mi WNW 6.9 mph - N/A   Clear
8:15 PM 72.5 °F 49.3 °F 44% 29.98 in 10.0 mi WNW 5.8 mph - N/A   Clear
8:35 PM 70.0 °F 49.8 °F 49% 29.98 in 10.0 mi WNW 5.8 mph - N/A   Clear
8:55 PM 69.8 °F 48.6 °F 47% 29.99 in 10.0 mi West 4.6 mph - N/A   Clear
9:15 PM 67.1 °F 49.5 °F 53% 30.00 in 10.0 mi WNW 4.6 mph - N/A   Clear
9:35 PM 65.8 °F 49.5 °F 55% 30.01 in 10.0 mi WNW 3.5 mph - N/A   Clear
9:55 PM 64.4 °F 50.9 °F 62% 30.02 in 10.0 mi WNW 3.5 mph - N/A   Clear
10:15 PM 62.1 °F 51.1 °F 67% 30.03 in 10.0 mi Calm Calm - N/A   Clear
10:35 PM 61.7 °F 50.2 °F 66% 30.04 in 10.0 mi NW 4.6 mph - N/A   Clear
10:55 PM 61.5 °F 48.7 °F 63% 30.05 in 10.0 mi NW 4.6 mph - N/A   Clear
11:15 PM 61.2 °F 47.8 °F 62% 30.04 in 10.0 mi NW 4.6 mph - N/A   Clear
11:35 PM 61.7 °F 46.2 °F 57% 30.05 in 10.0 mi NNW 5.8 mph - N/A   Clear
11:55 PM 60.4 °F 45.5 °F 58% 30.05 in 10.0 mi NW 5.8 mph - N/A   Clear